TimePST,TemperatureF,Dew PointF,Humidity,Sea Level PressureIn,VisibilityMPH,Wind Direction,Wind SpeedMPH,Gust SpeedMPH,PrecipitationIn,Events,Conditions,WindDirDegrees,DateUTC
12:53 AM,46.9,44.1,90,29.57,10.0,Variable,6.9,-,0.22,Rain,Rain,0,2012-12-04 08:53:00
1:02 AM,46.4,44.6,93,29.56,10.0,SE,4.6,-,0.04,Rain,Rain,130,2012-12-04 09:02:00
1:20 AM,46.4,44.6,93,29.55,10.0,ENE,3.5,-,0.12,Rain,Heavy Rain,60,2012-12-04 09:20:00
1:53 AM,45.0,44.1,97,29.55,10.0,NNE,4.6,-,0.23,Rain,Light Rain,20,2012-12-04 09:53:00
2:30 AM,44.6,44.6,100,29.54,8.0,NNE,4.6,-,0.12,Rain,Rain,30,2012-12-04 10:30:00
2:37 AM,44.6,44.6,100,29.53,9.0,North,9.2,-,0.14,Rain,Rain,10,2012-12-04 10:37:00
2:53 AM,44.1,44.1,100,29.54,8.0,North,4.6,-,0.19,Rain,Rain,10,2012-12-04 10:53:00
3:40 AM,44.6,44.6,100,29.52,9.0,North,4.6,-,0.12,Rain,Light Rain,350,2012-12-04 11:40:00
3:53 AM,44.1,44.1,100,29.52,8.0,North,5.8,-,0.13,Rain,Light Rain,360,2012-12-04 11:53:00
4:04 AM,44.6,44.6,100,29.52,9.0,North,3.5,-,0.02,Rain,Light Rain,350,2012-12-04 12:04:00
4:36 AM,44.6,42.8,93,29.54,10.0,NW,5.8,-,0.08,Rain,Light Rain,310,2012-12-04 12:36:00
4:53 AM,44.1,43.0,96,29.55,8.0,WNW,3.5,-,0.11,Rain,Light Rain,290,2012-12-04 12:53:00
5:53 AM,45.0,44.1,97,29.58,10.0,SW,5.8,-,0.04,Rain,Light Rain,230,2012-12-04 13:53:00
6:16 AM,48.2,48.2,100,29.59,10.0,SW,13.8,-,0.01,Rain,Light Rain,230,2012-12-04 14:16:00
6:53 AM,51.1,48.9,92,29.62,10.0,SW,16.1,-,0.01,,Overcast,220,2012-12-04 14:53:00
7:39 AM,50.0,48.2,94,29.65,10.0,SW,13.8,-,0.00,,Overcast,220,2012-12-04 15:39:00
7:53 AM,50.0,48.0,93,29.67,10.0,SW,16.1,26.5,0.00,,Overcast,230,2012-12-04 15:53:00
8:08 AM,50.0,48.2,94,29.67,10.0,SW,13.8,-,N/A,,Overcast,230,2012-12-04 16:08:00
8:53 AM,48.9,46.9,93,29.71,10.0,SW,15.0,-,N/A,,Scattered Clouds,230,2012-12-04 16:53:00
9:53 AM,50.0,44.6,82,29.73,10.0,SW,11.5,-,N/A,,Scattered Clouds,220,2012-12-04 17:53:00
10:53 AM,48.0,45.0,89,29.75,10.0,SW,11.5,-,0.04,Rain,Light Rain,220,2012-12-04 18:53:00
11:53 AM,50.0,46.0,86,29.74,10.0,SW,9.2,-,0.00,,Mostly Cloudy,230,2012-12-04 19:53:00
12:53 PM,51.1,45.0,80,29.73,10.0,SSW,11.5,18.4,0.00,Rain,Light Rain,200,2012-12-04 20:53:00
1:38 PM,48.2,42.8,82,29.72,10.0,SW,15.0,-,0.00,Rain,Light Rain,230,2012-12-04 21:38:00
1:49 PM,48.2,44.6,87,29.72,10.0,SW,11.5,24.2,0.01,Rain,Light Rain,230,2012-12-04 21:49:00
1:53 PM,48.0,45.0,89,29.73,10.0,SW,13.8,24.2,0.02,Rain,Light Rain,220,2012-12-04 21:53:00
2:53 PM,48.0,44.1,86,29.73,10.0,SW,11.5,-,0.00,,Mostly Cloudy,230,2012-12-04 22:53:00
3:53 PM,46.9,43.0,86,29.72,10.0,SW,6.9,-,N/A,,Overcast,220,2012-12-04 23:53:00
4:53 PM,46.9,44.1,90,29.73,10.0,South,6.9,-,0.00,,Overcast,190,2012-12-05 00:53:00
5:53 PM,45.0,43.0,93,29.73,10.0,SW,13.8,23.0,0.10,Rain,Light Rain,230,2012-12-05 01:53:00
6:53 PM,45.0,43.0,93,29.73,10.0,SSW,11.5,-,0.04,Rain,Light Rain,210,2012-12-05 02:53:00
7:53 PM,46.0,43.0,89,29.72,10.0,SSW,12.7,-,0.00,,Overcast,210,2012-12-05 03:53:00
8:53 PM,46.0,44.1,93,29.75,10.0,SW,11.5,-,0.00,Rain,Light Rain,230,2012-12-05 04:53:00
9:03 PM,46.4,44.6,93,29.74,10.0,SW,9.2,-,0.01,Rain,Light Rain,230,2012-12-05 05:03:00
9:15 PM,44.6,42.8,93,29.75,10.0,SW,13.8,-,0.01,,Overcast,230,2012-12-05 05:15:00
9:53 PM,44.1,42.1,93,29.78,10.0,SW,11.5,-,0.01,,Partly Cloudy,230,2012-12-05 05:53:00
10:53 PM,44.1,41.0,89,29.81,10.0,WSW,17.3,27.6,0.01,Rain,Light Rain,240,2012-12-05 06:53:00
11:53 PM,42.1,39.0,89,29.84,10.0,SW,17.3,24.2,0.00,Rain,Light Rain,220,2012-12-05 07:53:00